FW5365 Weather Reports


time (UTC)temp
C
wind
direction
speed
KPH
gust
KPH
rain 1hr
cm
rain 24hr
cm
rain mn
cm
humidity
%
barometer
mb
20260503210059 16 104 8.0 24.1 0.00 0.00 0.00 64 1012.6
20260503204559 17 112 9.7 22.5 0.00 0.00 0.00 63 1012.8
20260503203102 16 84 6.4 16.1 0.00 0.00 0.00 67 1012.9
20260503201559 15 294 8.0 19.3 0.00 0.00 0.00 68 1013.1
20260503200057 16 284 6.4 14.5 0.00 0.00 0.00 66 1013.0
20260503194624 15 195 4.8 9.7 0.00 0.00 0.00 66 1013.0
20260503193056 16 208 3.2 14.5 0.00 0.00 0.00 66 1012.9
20260503191612 16 263 4.8 12.9 0.00 0.00 0.00 65 1013.1
20260503190058 16 246 3.2 14.5 0.00 0.00 0.00 64 1013.1
20260503184559 16 318 3.2 11.3 0.00 0.00 0.00 64 1013.1
20260503183105 15 131 4.8 11.3 0.00 0.00 0.00 66 1013.1
20260503181607 15 169 3.2 17.7 0.00 0.00 0.00 64 1013.1
20260503180058 16 238 3.2 9.7 0.00 0.00 0.00 68 1013.0
20260503174613 14 262 3.2 8.0 0.00 0.00 0.00 71 1013.0
20260503173105 13 280 3.2 14.5 0.00 0.00 0.00 74 1012.9
20260503171557 13 285 1.6 12.9 0.00 0.00 0.00 78 1013.0
20260503170112 13 309 0.0 4.8 0.00 0.00 0.00 81 1013.2
20260503120112 11 295 0.0 0.0 0.00 0.00 0.00 88 1011.0
20260503081555 11 0 0.0 1.6 0.00 0.00 0.00 85 1011.8
20260503071557 11 315 0.0 4.8 0.00 0.00 0.00 86 1012.1
20260503054600 11 251 4.8 12.9 0.00 0.00 0.00 85 1012.3
20260503053057 11 284 4.8 12.9 0.00 0.00 0.00 85 1012.3
20260503051559 11 249 8.0 16.1 0.00 0.00 0.00 84 1012.3
20260503050058 11 262 9.7 17.7 0.00 0.00 0.00 83 1012.5
20260503044619 11 252 6.4 16.1 0.00 0.00 0.00 85 1012.3
20260503043109 11 231 4.8 16.1 0.00 0.00 0.00 86 1012.3
20260503041615 11 238 6.4 16.1 0.00 0.00 0.00 85 1012.3
20260503034604 11 245 9.7 17.7 0.00 0.00 0.00 83 1012.0
20260503033116 11 233 9.7 19.3 0.00 0.00 0.00 83 1011.9
20260503031600 11 278 8.0 17.7 0.00 0.00 0.00 84 1011.8
20260503030107 11 278 8.0 16.1 0.00 0.00 0.00 83 1011.4
20260503024604 11 242 8.0 22.5 0.00 0.00 0.00 83 1011.2
20260503023058 12 243 9.7 20.9 0.00 0.00 0.00 82 1011.2
20260503021609 12 293 8.0 17.7 0.00 0.00 0.00 81 1011.2
20260503020109 12 250 9.7 19.3 0.00 0.00 0.00 79 1011.2
20260503014557 12 208 6.4 16.1 0.00 0.00 0.00 78 1011.3
20260503013103 13 302 6.4 17.7 0.00 0.00 0.00 78 1011.3
20260503011607 13 263 6.4 14.5 0.00 0.00 0.00 76 1011.4
20260503004601 13 270 8.0 19.3 0.00 0.00 0.00 76 1011.3
20260503003106 13 219 9.7 17.7 0.00 0.00 0.00 77 1011.5
20260503001604 14 293 9.7 24.1 0.00 0.00 0.00 76 1011.4
20260503000055 15 281 8.0 14.5 0.00 0.00 0.00 73 1011.5
20260502234557 15 208 6.4 14.5 0.00 0.00 0.00 74 1011.3
20260502233057 15 235 6.4 16.1 0.00 0.00 0.00 73 1011.5
20260502231559 15 250 6.4 14.5 0.00 0.00 0.00 73 1011.6
20260502230057 15 313 6.4 14.5 0.00 0.00 0.00 73 1011.9
20260502224559 15 231 8.0 17.7 0.00 0.00 0.00 73 1012.2
20260502223055 15 195 6.4 11.3 0.00 0.00 0.00 73 1012.3
20260502221556 16 205 8.0 12.9 0.00 0.00 0.00 70 1012.5
20260502220143 16 217 8.0 12.9 0.00 0.00 0.00 72 1012.8
20260502214557 16 228 6.4 12.9 0.00 0.00 0.00 71 1012.8
20260502213103 16 181 8.0 12.9 0.00 0.00 0.00 71 1012.9
20260502211556 16 271 6.4 14.5 0.00 0.00 0.00 70 1013.0